Location: Ponte Samoggia
(44.5667°N, 11.1333°E)
Time: 22:00:37
(UTC+00:00)

Lacrosse 5 - Pass Details

Date: 26 May 2022
Orbit: 714 x 724 km, 57.0° (Epoch: 09 March)

Event Time Altitude Azimuth Distance (km) Brightness Sun altitude
Exits shadow 00:58:31 43° 198° (SSW) 1,006 2.1 -20.0°
Maximum altitude 01:00:02 66° 134° (SE) 790 1.9 -19.9°
Drops below altitude 10° 01:05:06 10° 53° (NE) 2,216 5.3 -19.5°
Sets 01:07:30 0° 51° (NE) 3,139 6.4 -19.3°
